{"data":{"norad_id":66299,"epoch":"2026-09-20T06:29:24.798624Z","epoch_age_seconds":151498,"freshness":"FRESH","line1":"1 66299U 25248G   26263.27042591  .00002882  00000+0  13963-3 0  9996","line2":"2 66299  45.4026 331.0239 0005533 232.5325 127.5059 15.21150395 48995","mean_motion":15.21150395,"eccentricity":0.0005533,"inclination_deg":45.4026,"raan_deg":331.0239,"arg_perigee_deg":232.5325,"mean_anomaly_deg":127.5059,"bstar":0.00013963,"rev_number":4899,"period_min":94.665195810569,"perigee_km":498.562444406,"apogee_km":506.17641281991,"semimajor_km":6880.506428613,"source":"CELESTRAK","updated_at":"2026-09-21T09:00:15.899010Z"}}